Regional Weather Roundup
Issued by NWS New Orleans/Baton Rouge, LA

Home | Current Version | Previous Version | Graphics & Text | Print | Product List | Glossary On
Versions: 1 2 3 4 5 6 7 8 9 10 11 12 13 14 15 16 17 18 19 20 21 22 23 24 25 26 27 28 29 30 31 32 33 34 35 36 37 38 39 40 41 42 43 44 45 46 47 48 49 50
236
ASUS44 KLIX 171805
RWRLIX
NEW ORLEANS REGIONAL WEATHER ROUNDUP
NATIONAL WEATHER SERVICE NEW ORLEANS LA
1200 PM CST WED DEC 17 2014

NOTE: "FAIR" INDICATES FEW OR NO CLOUDS BELOW 12,000 FEET WITH NO
      SIGNIFICANT WEATHER AND/OR OBSTRUCTIONS TO VISIBILITY.
      SKY/WX - SKY CONDITION AND SIGNIFICANT WEATHER.
      TMP - AIR TEMPERATURE.     DP    - DEWPOINT TEMPERATURE.
      RH  - RELATIVE HUMIDITY.   PRES  - PRESSURE.
      HI  - HEAT INDEX.          WCI   - WIND CHILL INDEX.

*  THESE STATIONS ARE NOT NWS OR FAA STATIONS AND ARE NOT UNDER
   NWS QUALITY CONTROL.

LAZ038-040-048-061>063-065>067-069-171900-
SOUTHEAST LOUISIANA

CITY           SKY/WX    TMP DP  RH WIND       PRES   REMARKS
N.O. AUDUBON     N/A     59  45  61 MISG        N/A
6HR MIN TEMP:  55; 6HR MAX TEMP:  59;

N.O. INTL ARPT PTSUNNY   58  43  57 N7        30.26F
6HR MIN TEMP:  46; 6HR MAX TEMP:  58;

N.O. LAKEFRONT   N/A     57  42  57 NE7       30.25F
6HR MIN TEMP:  50; 6HR MAX TEMP:  57;

N.O. DOWNTOWN*   N/A     55  43  62 NE6       30.25F
6HR MIN TEMP:  46; 6HR MAX TEMP:  55;

SLIDELL          N/A     57  38  48 CALM      30.25F
6HR MIN TEMP:  32; 6HR MAX TEMP:  57;

BATON ROUGE      N/A     56  38  50 NE5       30.25F
6HR MIN TEMP:  34; 6HR MAX TEMP:  56;

BOOTHVILLE       N/A     60  49  66 NE8       30.23F
6HR MIN TEMP:  52; 6HR MAX TEMP:  60;

BELLE CHASSE   PTSUNNY   60  42  51 NE9       30.24F
6HR MIN TEMP:  40; 6HR MAX TEMP:  60;

BOGALUSA*        N/A     57  39  51 N5        30.27F
6HR MIN TEMP:  33; 6HR MAX TEMP:  58;

GALLIANO*        N/A     61  46  58 MISG      30.24F
6HR MIN TEMP:  46; 6HR MAX TEMP:  62;

NEW ROADS*       N/A     54  39  56 E5        30.27F
6HR MIN TEMP:  34; 6HR MAX TEMP:  55;

GONZALES*        N/A     57  42  57 CALM      30.25F
6HR MIN TEMP:  36; 6HR MAX TEMP:  57;

HAMMOND*       NOT AVBL
HOUMA*         PTSUNNY   59  43  55 E6        30.24F
PORT FOURCHON* CLEAR     59  46  63 NE8       30.26F

$$

MSZ070-080>082-171900-
SOUTHERN MISSISSIPPI

CITY           SKY/WX    TMP DP  RH WIND       PRES   REMARKS
MCCOMB           N/A     53  39  59 N5        30.26F
6HR MIN TEMP:  33; 6HR MAX TEMP:  53;

GULFPORT         N/A     56  37  49 CALM      30.24F
6HR MIN TEMP:  35; 6HR MAX TEMP:  57;

BILOXI           N/A     57  38  48 N3        30.25F
6HR MIN TEMP:  40; 6HR MAX TEMP:  57;

PASCAGOULA       N/A     58  38  47 N6        30.25F
6HR MIN TEMP:  30; 6HR MAX TEMP:  58;

STENNIS ARPT*  PTSUNNY   57  34  41 VRB5      30.25F

$$

COASTAL OBSERVATIONS
LAKE AND NEARSHORE STATIONS

STATION/POSITION TIME  TEMP    WIND        PRES    WAVE
                       AIR SEA DIR/SP/G            HT/PER
                 (UTC) (F)     (DEG/KT/KT) (MB)    (FT/S)
PASCAGOULA       1800   55     180/  5/  6 1023.9
WAVELAND YACHT   1800   56      60/  3/  4 1023.4
GRAND ISLE       1800   58 61   70/  8/ 12 1023.9
SOUTHWEST PASS   1800   66                 1023.3
NEW CANAL        1800   53 57   50/  9/ 11 1024.5

OFFSHORE STATIONS

STATION/POSITION TIME  TEMP    WIND        PRES    WAVE
                       AIR SEA DIR/SP/G            HT/PER
                 (UTC) (F)     (DEG/KT/KT) (MB)    (FT/S)
64 S DAUPHIN ISL 1800   61 74   20/  4/  6 1023.2    2/ 5

$$




USA.gov is the U.S. government's official web portal to all federal, state and local government web resources and services.